Budapest Ferihegy, Hungary

1:29 PM CEST on April 25, 2017 (GMT +0200)
Ferihegy

Weather History for LHBP - August, 2012

Change the Weather History Date:

Sunday, August 12, 2012

  Actual Average Record
Temperature  
Mean Temperature 64 °F -  
Max Temperature 73 °F 73 °F 102 °F (2015)
Min Temperature 55 °F 53 °F 48 °F (2016)
Degree Days  
Heating Degree Days 1    
Growing Degree Days 14 (Base 50)    
Moisture  
Dew Point 49 °F    
Average Humidity 61    
Maximum Humidity 82    
Minimum Humidity 38    
Precipitation  
Precipitation 0.00 in - - ()
Sea Level Pressure  
Sea Level Pressure 30.00 in    
Wind  
Wind Speed 6 mph ()    
Max Wind Speed 13 mph    
Max Gust Speed -    
Visibility 6.2 miles    
Events Rain    
Averages and records for this station are not official NWS values.
T = Trace of Precipitation, MM = Missing Value Source: Averaged Metar Reports

Daily Weather History Graph

Daily Weather History Graph

Search for Another Location

Airport or City:

Trip Planner

Search our weather history database for the weather conditions in past years. The results will help you decide how hot, cold, wet, or windy it might be!

Date:

Astronomy

Aug. 12, 2012 Rise Set
Actual Time 5:35 AM CEST 7:59 PM CEST
Civil Twilight 5:01 AM CEST 8:33 PM CEST
Nautical Twilight 4:18 AM CEST 9:16 PM CEST
Astronomical Twilight 3:29 AM CEST 10:04 PM CEST
Moon 12:26 AM CEST (8/12) 4:18 PM CEST (8/12)
Length of Visible Light 15h 32m
Length of Day
14h 24m
Waning Crescent, 26% of the Moon is Illuminated
Aug 12
Waning Crescent
Aug 17
New
Aug 24
First Quarter
Aug 31
Full
Sep 8
Last Quarter

Hourly Weather History & Observations

Time (CEST) Temp. Dew Point Humidity Pressure Visibility Wind Dir Wind Speed Gust Speed Precip Events Conditions
12:00 AM 59.0 °F 50.0 °F 72% 30.01 in 6.2 mi NNW 6.9 mph - N/A   Mostly Cloudy
12:30 AM 59.0 °F 48.2 °F 67% 30.01 in 6.2 mi NNW 5.8 mph - N/A   Mostly Cloudy
1:00 AM 59.0 °F 48.2 °F 67% 30.01 in 6.2 mi NNW 8.1 mph - N/A   Mostly Cloudy
1:30 AM 59.0 °F 48.2 °F 67% 30.01 in 6.2 mi NNW 8.1 mph - N/A   Mostly Cloudy
2:00 AM 59.0 °F 48.2 °F 67% 30.01 in 6.2 mi NW 5.8 mph - N/A Rain Light Rain Showers
2:30 AM 57.2 °F 51.8 °F 82% 30.01 in 6.2 mi North 6.9 mph - N/A Rain Light Rain Showers
3:00 AM 57.2 °F 51.8 °F 82% 30.01 in 6.2 mi NW 4.6 mph - N/A Rain Light Rain Showers
3:30 AM 57.2 °F 51.8 °F 82% 30.01 in 6.2 mi NNW 4.6 mph - N/A   Mostly Cloudy
4:00 AM 57.2 °F 51.8 °F 82% 30.01 in 6.2 mi NW 5.8 mph - N/A   Mostly Cloudy
4:30 AM 57.2 °F 51.8 °F 82% 30.01 in 6.2 mi NW 5.8 mph - N/A   Mostly Cloudy
5:00 AM 55.4 °F 50.0 °F 82% 30.01 in 6.2 mi NW 6.9 mph - N/A   Mostly Cloudy
5:30 AM 57.2 °F 50.0 °F 77% 30.01 in 6.2 mi NNW 6.9 mph - N/A   Mostly Cloudy
6:30 AM 57.2 °F 50.0 °F 77% 30.01 in - NNW 6.9 mph - N/A   Clear
7:00 AM 57.2 °F 50.0 °F 77% 30.01 in - NW 5.8 mph - N/A   Clear
7:30 AM 57.2 °F 50.0 °F 77% 30.01 in - NNW 4.6 mph - N/A   Clear
8:00 AM 59.0 °F 50.0 °F 72% 30.01 in - NNW 4.6 mph - N/A   Clear
8:30 AM 60.8 °F 50.0 °F 68% 30.01 in 6.2 mi NNW 5.8 mph - N/A   Mostly Cloudy
9:00 AM 60.8 °F 50.0 °F 68% 30.01 in 6.2 mi NW 5.8 mph - N/A   Mostly Cloudy
9:30 AM 62.6 °F 50.0 °F 63% 30.01 in 6.2 mi Variable 4.6 mph - N/A   Mostly Cloudy
10:00 AM 64.4 °F 48.2 °F 56% 30.01 in 6.2 mi North 5.8 mph - N/A   Mostly Cloudy
10:30 AM 64.4 °F 48.2 °F 56% 30.01 in 6.2 mi North 8.1 mph - N/A   Mostly Cloudy
11:00 AM 64.4 °F 48.2 °F 56% 30.01 in 6.2 mi North 5.8 mph - N/A   Mostly Cloudy
11:30 AM 66.2 °F 50.0 °F 56% 30.01 in 6.2 mi North 6.9 mph - N/A   Mostly Cloudy
12:00 PM 66.2 °F 48.2 °F 52% 30.01 in 6.2 mi NNW 8.1 mph - N/A   Mostly Cloudy
12:30 PM 69.8 °F 48.2 °F 46% 30.01 in 6.2 mi North 4.6 mph - N/A   Mostly Cloudy
1:00 PM 68.0 °F 48.2 °F 49% 30.01 in 6.2 mi North 5.8 mph - N/A   Mostly Cloudy
1:30 PM 69.8 °F 48.2 °F 46% 29.98 in 6.2 mi North 6.9 mph - N/A   Mostly Cloudy
2:00 PM 69.8 °F 48.2 °F 46% 29.98 in 6.2 mi NNW 8.1 mph - N/A   Mostly Cloudy
2:30 PM 69.8 °F 46.4 °F 43% 29.98 in 6.2 mi NNE 8.1 mph - N/A   Scattered Clouds
3:00 PM 73.4 °F 48.2 °F 41% 29.98 in 6.2 mi SW 5.8 mph - N/A   Scattered Clouds
3:30 PM 68.0 °F 50.0 °F 52% 29.98 in 6.2 mi North 12.7 mph - N/A Rain Light Rain Showers
4:00 PM 69.8 °F 48.2 °F 46% 29.98 in 6.2 mi North 8.1 mph - N/A   Scattered Clouds
4:30 PM 71.6 °F 44.6 °F 38% 29.98 in 6.2 mi North 8.1 mph - N/A   Scattered Clouds
5:00 PM 69.8 °F 46.4 °F 43% 29.98 in 6.2 mi North 9.2 mph - N/A   Scattered Clouds
5:30 PM 69.8 °F 48.2 °F 46% 29.98 in 6.2 mi North 9.2 mph - N/A   Mostly Cloudy
6:00 PM 69.8 °F 44.6 °F 40% 29.98 in - North 9.2 mph - N/A   Clear
6:30 PM 69.8 °F 48.2 °F 46% 29.98 in 6.2 mi North 12.7 mph - N/A   Scattered Clouds
7:00 PM 68.0 °F 50.0 °F 52% 29.98 in - NNE 8.1 mph - N/A   Clear
7:30 PM 68.0 °F 48.2 °F 49% 29.98 in - NNE 8.1 mph - N/A   Clear
8:00 PM 66.2 °F 48.2 °F 52% 29.98 in - NE 4.6 mph - N/A   Clear
8:30 PM 64.4 °F 50.0 °F 59% 29.98 in - NNE 6.9 mph - N/A   Clear
9:00 PM 64.4 °F 50.0 °F 59% 29.98 in - Variable 2.3 mph - N/A   Clear
9:30 PM 64.4 °F 50.0 °F 59% 29.98 in - Variable 2.3 mph - N/A   Clear
10:00 PM 64.4 °F 50.0 °F 59% 30.01 in - Variable 2.3 mph - N/A   Clear
10:30 PM 62.6 °F 48.2 °F 59% 30.01 in - ENE 4.6 mph - N/A   Clear
11:00 PM 62.6 °F 50.0 °F 63% 30.01 in - ENE 6.9 mph - N/A   Clear
11:30 PM 59.0 °F 50.0 °F 72% 30.01 in - ENE 4.6 mph - N/A   Clear